Weather History for LEGR - June, 2014

Change the Weather History Date:

Tuesday, June 17, 2014

  Actual Average Record
Temperature  
Mean Temperature 74 °F -  
Max Temperature 88 °F 90 °F 96 °F (2000)
Min Temperature 61 °F 58 °F 50 °F (2001)
Cooling Degree Days 10    
Growing Degree Days 24 (Base 50)    
Moisture  
Dew Point 52 °F    
Average Humidity 42    
Maximum Humidity 77    
Minimum Humidity 15    
Precipitation  
Precipitation 0.00 in - - ()
Sea Level Pressure  
Sea Level Pressure 29.95 in    
Wind  
Wind Speed 4 mph ()    
Max Wind Speed 12 mph    
Max Gust Speed -    
Visibility 10.9 miles    
Events      
Averages and records for this station are not official NWS values.
T = Trace of Precipitation, MM = Missing Value Source: Averaged Metar Reports

Daily Weather History Graph

Daily Weather History Graph

Search for Another Location

Airport or City:

Trip Planner

Search our weather history database for the weather conditions in past years. The results will help you decide how hot, cold, wet, or windy it might be!

Date:

Astronomy

Jun. 17, 2014 Rise Set
Actual Time 6:54 AM CEST 9:37 PM CEST
Civil Twilight 6:23 AM CEST 10:08 PM CEST
Nautical Twilight 5:44 AM CEST 10:47 PM CEST
Astronomical Twilight 5:01 AM CEST 11:30 PM CEST
Moon 12:24 AM CEST (6/17) 11:46 AM CEST (6/17)
Length of Visible Light 15h 44m
Length of Day
14h 43m
Waning Gibbous, 76% of the Moon is Illuminated
Jun 17
Waning Gibbous
Jun 19
Last Quarter
Jun 27
New
Jul 5
First Quarter
Jul 12
Full

Hourly Weather History & Observations

Time (CEST) Temp. Dew Point Humidity Pressure Visibility Wind Dir Wind Speed Gust Speed Precip Events Conditions
12:00 AM 67 °F 57 °F 63% 29.91 in 17 mi SSW 4.6 mph - -  
12:00 AM 68.0 °F 59.0 °F 73% 29.98 in 6.2 mi SSW 5.8 mph - N/A   Scattered Clouds
1:00 AM 67 °F 58 °F 65% 29.93 in 19 mi NW 2.3 mph - -  
2:00 AM 65 °F 56 °F 65% 29.94 in 19 mi SSE 2.3 mph - -  
3:00 AM 66 °F 53 °F 52% 29.94 in 19 mi SE 9.2 mph - -  
4:00 AM 66 °F 54 °F 56% 29.96 in 19 mi East 4.6 mph - -  
5:00 AM 66 °F 53 °F 53% 29.95 in 19 mi SE 2.3 mph - -  
6:00 AM 65 °F 54 °F 60% 29.95 in 19 mi SSW 2.3 mph - -  
6:00 AM 66.2 °F 55.4 °F 68% 30.01 in 6.2 mi Variable 2.3 mph - N/A   Scattered Clouds
6:30 AM 64.4 °F 55.4 °F 73% 29.98 in 6.2 mi Variable 1.2 mph - N/A   Partly Cloudy
7:00 AM 62 °F 55 °F 72% 29.96 in 19 mi South 1.2 mph - -  
7:00 AM 62.6 °F 55.4 °F 77% 30.01 in 6.2 mi Variable 1.2 mph - N/A   Partly Cloudy
7:30 AM 62.6 °F 55.4 °F 77% 30.01 in 6.2 mi Calm Calm - N/A   Partly Cloudy
8:00 AM 67 °F 57 °F 61% 29.95 in 12 mi Calm Calm - -   Scattered Clouds
8:00 AM 64.4 °F 57.2 °F 77% 30.01 in 6.2 mi Calm Calm - N/A   Partly Cloudy
8:30 AM 68.0 °F 57.2 °F 68% 30.01 in 6.2 mi Variable 1.2 mph - N/A   Partly Cloudy
9:00 AM 71 °F 56 °F 49% 29.95 in 9 mi ENE 1.2 mph - -   Scattered Clouds
9:00 AM 69.8 °F 57.2 °F 64% 30.01 in 6.2 mi Variable 1.2 mph - N/A   Partly Cloudy
9:30 AM 69.8 °F 55.4 °F 60% 30.01 in 6.2 mi Variable 2.3 mph - N/A   Partly Cloudy
10:00 AM 75 °F 54 °F 37% 29.93 in 14 mi NNE 1.2 mph - -  
10:00 AM 71.6 °F 53.6 °F 53% 30.01 in 6.2 mi Variable 1.2 mph - N/A   Partly Cloudy
10:30 AM 71.6 °F 53.6 °F 53% 30.01 in 6.2 mi NW 4.6 mph - N/A   Partly Cloudy
11:00 AM 77 °F 53 °F 33% 29.92 in 16 mi NNW 5.8 mph - -   Scattered Clouds
11:00 AM 75.2 °F 55.4 °F 50% 30.01 in 6.2 mi NNW 4.6 mph - N/A   Partly Cloudy
11:30 AM 77.0 °F 53.6 °F 44% 30.01 in 6.2 mi North 3.5 mph - N/A   Partly Cloudy
12:00 PM 81 °F 52 °F 26% 29.90 in 19 mi NNW 3.5 mph - -  
12:00 PM 78.8 °F 51.8 °F 39% 30.01 in 6.2 mi NNW 3.5 mph - N/A   Partly Cloudy
12:30 PM 80.6 °F 51.8 °F 37% 30.01 in 6.2 mi NW 4.6 mph - N/A   Partly Cloudy
1:00 PM 83 °F 49 °F 20% 29.88 in 19 mi NW 3.5 mph - -  
1:00 PM 80.6 °F 50.0 °F 34% 29.98 in 6.2 mi WNW 4.6 mph - N/A   Partly Cloudy
1:30 PM 82.4 °F 50.0 °F 32% 29.98 in 6.2 mi Variable 2.3 mph - N/A   Partly Cloudy
2:00 PM 86 °F 49 °F 18% 29.86 in 19 mi NW 6.9 mph - -   Scattered Clouds
2:00 PM 84.2 °F 51.8 °F 33% 29.98 in 6.2 mi Variable 5.8 mph - N/A   Partly Cloudy
2:30 PM 84.2 °F 46.4 °F 27% 29.98 in 6.2 mi WNW 8.1 mph - N/A   Partly Cloudy
3:00 PM 87 °F 47 °F 16% 29.83 in 19 mi West 4.6 mph - -   Partly Cloudy
3:00 PM 82.4 °F 46.4 °F 28% 29.95 in 6.2 mi Variable 5.8 mph - N/A   Partly Cloudy
3:30 PM 82.4 °F 46.4 °F 28% 29.95 in 6.2 mi West 6.9 mph - N/A   Scattered Clouds
4:00 PM 84 °F 46 °F 17% 29.83 in 19 mi WNW 9.2 mph - -  
4:00 PM 82.4 °F 48.2 °F 30% 29.95 in 6.2 mi WNW 9.2 mph - N/A   Scattered Clouds
5:00 PM 83 °F 47 °F 18% 29.83 in 19 mi NW 8.1 mph - -   Partly Cloudy
5:00 PM 82.4 °F 46.4 °F 28% 29.95 in 6.2 mi NW 6.9 mph - N/A   Scattered Clouds
5:30 PM 84.2 °F 50.0 °F 30% 29.95 in 6.2 mi West 9.2 mph - N/A   Scattered Clouds
6:00 PM 88 °F 47 °F 15% 29.81 in 19 mi WSW 11.5 mph - -  
6:00 PM 84.2 °F 48.2 °F 29% 29.92 in 6.2 mi WSW 10.4 mph - N/A   Scattered Clouds
6:30 PM 84.2 °F 46.4 °F 27% 29.92 in 6.2 mi West 10.4 mph - N/A   Scattered Clouds
7:00 PM 86 °F 46 °F 16% 29.81 in 19 mi WNW 9.2 mph - -  
7:00 PM 84.2 °F 48.2 °F 29% 29.92 in 6.2 mi NNW 11.5 mph - N/A   Scattered Clouds
7:30 PM 84.2 °F 48.2 °F 29% 29.95 in 6.2 mi NNW 6.9 mph - N/A   Scattered Clouds
8:00 PM 86 °F 46 °F 16% 29.82 in 19 mi West 5.8 mph - -   Scattered Clouds
8:00 PM 84.2 °F 48.2 °F 29% 29.95 in 6.2 mi West 4.6 mph - N/A   Partly Cloudy
8:30 PM 82.4 °F 48.2 °F 30% 29.95 in 6.2 mi WNW 9.2 mph - N/A   Partly Cloudy
9:00 PM 82 °F 48 °F 20% 29.85 in 17 mi West 8.1 mph - -  
9:00 PM 80.6 °F 48.2 °F 32% 29.95 in 6.2 mi WNW 6.9 mph - N/A   Partly Cloudy
9:30 PM 77.0 °F 51.8 °F 41% 29.98 in 6.2 mi West 9.2 mph - N/A   Partly Cloudy
10:00 PM 75 °F 52 °F 33% 29.89 in 19 mi SW 3.5 mph - -  
10:00 PM 75.2 °F 51.8 °F 44% 29.98 in 6.2 mi SW 3.5 mph - N/A   Partly Cloudy
11:00 PM 70 °F 52 °F 42% 29.93 in 19 mi South 2.3 mph - -   Scattered Clouds
11:00 PM 71.6 °F 51.8 °F 50% 30.01 in 6.2 mi Variable 1.2 mph - N/A   Partly Cloudy
11:30 PM 68.0 °F 53.6 °F 60% 30.01 in 6.2 mi Variable 1.2 mph - N/A   Partly Cloudy